Location: Amherst
(42.5000°N, 72.5000°W)
Time: 00:15:48
(UTC-04:00)

ISS - Pass Details

Date: 20 July 2018
Orbit: 402 x 408 km, 51.6° (Epoch: 21 July)

Event Time Altitude Azimuth Distance (km) Brightness Sun altitude
Rises 22:19:44 0° 247° (WSW) 2,311 0.2 -17.4°
Reaches altitude 10° 22:21:50 10° 252° (WSW) 1,455 -0.8 -17.6°
Maximum altitude 22:25:02 53° 330° (NNW) 502 -3.0 -18.0°
Drops below altitude 10° 22:28:16 10° 49° (NE) 1,465 -1.0 -18.3°
Sets 22:30:23 0° 54° (NE) 2,329 0.0 -18.6°
